Find Kuiper-00120

NORAD ID: 65762 Int'l Des: 2025-217 Owner: KUIP Country: US Constellation: amazon-leo operational
LEOCIRCULAR

当前视图

正在加载3D地球...

About Kuiper-00120

Kuiper-00120 (NORAD 65762) is a amazon-leo constellation satellite launched Sep 25, 2025 by KUIP of US. It operates in LEO, CIRCULAR orbit with a mass of 490.00 kg.

关于 Kuiper-00120

正在加载描述...

即将过境

Passes for default location (London). Set your location on the main map for personalized predictions.

高度历史

Loading altitude history...

两行轨道根数

1 65762U 25217A 26193.46766036 .00000989 00000-0 15876-3 0 9998
2 65762 51.8978 221.2879 0000480 88.4843 271.6174 14.79928858 43213
Epoch: Jul 12, 2026 • Age: 41 hours

当前状态

高度 630.3 km
远地点 / 近地点 N/A
速度 7.55 km/s
星下点 25.66°N, 13.61°E
发射日期 Sep 25, 2025
运行时间 0.7 years
类型 internet

技术详情

分类 Payload
质量 490.00 kg
干质量 490.00 kg
总质量 490.00 kg
长度 1.80 m
直径 0.70 m
跨度 5.00 m
形状 Box + 2 pan
制造商 KUIP
平台类型 Kuiper
阶段状态 In Orbit
所有者/国家 KUIP/US

Most Searched